DW8780 Weather Reports


Display with metric or nautical units.
time (UTC)temp
F
wind
direction
speed
MPH
gust
MPH
rain 1hr
in
rain 24hr
in
rain mn
in
humidity
%
barometer
mb
20260503072503 46 308 1.0 3.0 0.00 0.00 0.00 66 1013.0
20260503071503 46 305 1.0 4.0 0.00 0.00 0.00 65 1012.9
20260503071003 46 306 1.0 4.0 0.00 0.00 0.00 65 1012.9
20260503070503 46 324 1.0 4.0 0.00 0.00 0.00 64 1012.8
20260503055003 49 348 2.0 7.0 0.00 0.00 0.00 57 1012.7
20260503054003 50 350 2.0 8.0 0.00 0.00 0.00 57 1012.6
20260503053503 50 349 3.0 9.0 0.00 0.00 0.00 56 1012.7
20260503053003 50 352 4.0 10.0 0.00 0.00 0.00 55 1012.8
20260503052502 50 354 4.0 11.0 0.00 0.00 0.00 55 1012.9
20260503052003 50 358 4.0 11.0 0.00 0.00 0.00 55 1012.8
20260503051503 50 356 4.0 12.0 0.00 0.00 0.00 55 1012.8
20260503051003 51 355 4.0 12.0 0.00 0.00 0.00 56 1012.8
20260503045502 50 343 2.0 8.0 0.00 0.00 0.00 56 1012.8
20260503045003 51 341 2.0 7.0 0.00 0.00 0.00 57 1012.8
20260503044504 51 337 2.0 7.0 0.00 0.00 0.00 56 1012.9
20260503044003 51 342 1.0 5.0 0.00 0.00 0.00 56 1013.0
20260503043503 51 339 1.0 5.0 0.00 0.00 0.00 56 1012.9
20260503043003 51 323 1.0 5.0 0.00 0.00 0.00 56 1012.9
20260503042503 51 338 1.0 6.0 0.00 0.00 0.00 54 1012.9
20260503042003 52 355 2.0 7.0 0.00 0.00 0.00 54 1012.8
20260503041502 52 357 2.0 7.0 0.00 0.00 0.00 54 1012.8
20260503040502 52 359 3.0 9.0 0.00 0.00 0.00 54 1012.8
20260503040004 52 357 2.0 9.0 0.00 0.00 0.00 53 1012.9
20260503035503 52 351 1.0 4.0 0.00 0.00 0.00 55 1012.9
20260503035003 52 354 1.0 6.0 0.00 0.00 0.00 54 1013.0
20260503034503 52 359 2.0 6.0 0.00 0.00 0.00 54 1012.9
20260503034003 52 1 2.0 5.0 0.00 0.00 0.00 53 1012.7
20260503033503 52 359 2.0 5.0 0.00 0.00 0.00 54 1012.8
20260503033003 52 1 2.0 9.0 0.00 0.00 0.00 53 1012.9
20260503032503 52 1 3.0 9.0 0.00 0.00 0.00 52 1013.0
20260503032003 53 359 3.0 8.0 0.00 0.00 0.00 52 1012.8
20260503031503 53 354 2.0 6.0 0.00 0.00 0.00 52 1012.8
20260503031003 53 358 3.0 9.0 0.00 0.00 0.00 52 1012.9
20260503030503 53 2 3.0 9.0 0.00 0.00 0.00 51 1012.7
20260503030005 53 1 3.0 8.0 0.00 0.00 0.00 51 1012.8
20260503025503 53 359 3.0 8.0 0.00 0.00 0.00 51 1013.0
20260503025003 53 359 3.0 9.0 0.00 0.00 0.00 51 1013.0
20260503024503 53 359 3.0 9.0 0.00 0.00 0.00 51 1013.1
20260503023004 53 354 3.0 9.0 0.00 0.00 0.00 51 1013.1
20260503022503 53 358 3.0 9.0 0.00 0.00 0.00 50 1013.0
20260503021503 53 359 4.0 11.0 0.00 0.00 0.00 50 1012.8
20260503021003 53 358 4.0 10.0 0.00 0.00 0.00 50 1012.8
20260503020003 53 351 2.0 6.0 0.00 0.00 0.00 52 1012.8
20260503015503 53 340 1.0 5.0 0.00 0.00 0.00 53 1012.9
20260503015002 53 329 1.0 4.0 0.00 0.00 0.00 53 1013.1
20260503014505 53 317 1.0 4.0 0.00 0.00 0.00 53 1013.0
20260503013503 54 309 1.0 3.0 0.00 0.00 0.00 51 1013.0
20260503013003 54 306 1.0 3.0 0.00 0.00 0.00 51 1013.0
20260503012003 54 299 1.0 3.0 0.00 0.00 0.00 50 1012.8
20260503011503 54 341 1.0 4.0 0.00 0.00 0.00 50 1012.8
20260503011003 54 352 1.0 5.0 0.00 0.00 0.00 49 1012.6
20260503010003 54 354 1.0 5.0 0.00 0.00 0.00 49 1012.5
20260503005503 54 350 1.0 5.0 0.00 0.00 0.00 49 1012.5
20260503005002 55 352 1.0 8.0 0.00 0.00 0.00 48 1012.4
20260503004503 55 343 1.0 8.0 0.00 0.00 0.00 48 1012.4
20260503004002 55 351 1.0 6.0 0.00 0.00 0.00 48 1012.4
20260503003503 55 349 1.0 6.0 0.00 0.00 0.00 47 1012.2
20260503002503 56 347 1.0 5.0 0.00 0.00 0.00 47 1012.3
20260503002003 56 344 1.0 5.0 0.00 0.00 0.00 46 1012.1
20260503001503 56 352 1.0 7.0 0.00 0.00 0.00 47 1012.1
20260503001002 56 1 2.0 7.0 0.00 0.00 0.00 46 1011.8
20260503000504 56 359 2.0 5.0 0.00 0.00 0.00 45 1011.8
20260503000003 56 346 1.0 5.0 0.00 0.00 0.00 45 1012.0
20260502235503 56 330 1.0 6.0 0.00 0.00 0.00 45 1012.2
20260502235003 57 347 2.0 7.0 0.00 0.00 0.00 45 1012.3
20260502234003 57 349 2.0 7.0 0.00 0.00 0.00 45 1011.9
20260502233502 57 358 3.0 8.0 0.00 0.00 0.00 44 1011.8
20260502233003 57 358 3.0 8.0 0.00 0.00 0.00 42 1011.8
20260502232003 57 359 3.0 8.0 0.00 0.00 0.00 43 1011.8
20260502230503 58 356 3.0 9.0 0.00 0.00 0.00 41 1011.9
20260502230003 58 358 3.0 9.0 0.00 0.00 0.00 41 1011.9
20260502225502 58 359 4.0 11.0 0.00 0.00 0.00 40 1011.9
20260502224503 58 358 4.0 11.0 0.00 0.00 0.00 40 1012.0
20260502224002 58 357 4.0 11.0 0.00 0.00 0.00 39 1012.1
20260502223503 58 353 3.0 11.0 0.00 0.00 0.00 39 1012.2
20260502223003 59 353 3.0 11.0 0.00 0.00 0.00 39 1012.2
20260502222503 59 357 4.0 11.0 0.00 0.00 0.00 39 1012.0
20260502221503 59 357 4.0 11.0 0.00 0.00 0.00 37 1011.9
20260502221003 59 2 5.0 11.0 0.00 0.00 0.00 37 1011.9
20260502220503 59 359 3.0 10.0 0.00 0.00 0.00 36 1011.9
20260502220003 59 355 4.0 12.0 0.00 0.00 0.00 38 1011.9
20260502215503 59 356 4.0 12.0 0.00 0.00 0.00 37 1012.0
20260502215003 60 349 3.0 11.0 0.00 0.00 0.00 38 1011.8
20260502214503 60 345 4.0 13.0 0.00 0.00 0.00 38 1011.8
20260502214003 59 345 4.0 13.0 0.00 0.00 0.00 37 1011.9
20260502213503 60 349 3.0 11.0 0.00 0.00 0.00 39 1011.9
20260502213003 60 356 5.0 11.0 0.00 0.00 0.00 40 1011.9
20260502212503 60 356 5.0 11.0 0.00 0.00 0.00 39 1011.7
20260502212004 60 357 4.0 11.0 0.00 0.00 0.00 41 1011.7
20260502211503 60 347 4.0 11.0 0.00 0.00 0.00 41 1011.8
20260502211003 60 340 3.0 8.0 0.00 0.00 0.00 43 1011.8
20260502210503 60 1 3.0 7.0 0.00 0.00 0.00 42 1011.7
20260502210003 60 359 2.0 6.0 0.00 0.00 0.00 42 1011.6
20260502205503 60 353 2.0 7.0 0.00 0.00 0.00 42 1011.6
20260502205003 60 3 2.0 8.0 0.00 0.00 0.00 45 1011.6
20260502204503 60 12 3.0 8.0 0.00 0.00 0.00 43 1011.6
20260502204003 60 12 3.0 7.0 0.00 0.00 0.00 43 1011.5
20260502203503 60 357 2.0 12.0 0.00 0.00 0.00 42 1011.6
20260502203002 60 348 3.0 12.0 0.00 0.00 0.00 45 1011.7
20260502202503 60 354 3.0 15.0 0.00 0.00 0.00 43 1011.6
20260502202003 60 351 4.0 15.0 0.00 0.00 0.00 45 1011.6
20260502201503 60 339 3.0 14.0 0.00 0.00 0.00 44 1011.6
20260502201003 60 3 3.0 8.0 0.00 0.00 0.00 44 1011.7
20260502200502 60 29 3.0 8.0 0.00 0.00 0.00 46 1011.8
20260502200003 60 22 4.0 8.0 0.00 0.00 0.00 47 1011.8
20260502195503 59 5 4.0 9.0 0.00 0.00 0.00 48 1011.7
20260502194503 59 358 2.0 9.0 0.00 0.00 0.00 50 1011.9
20260502194003 59 1 3.0 9.0 0.00 0.00 0.00 50 1012.1
20260502193003 59 358 3.0 7.0 0.00 0.00 0.00 49 1012.1
20260502192503 60 356 3.0 10.0 0.00 0.00 0.00 49 1012.1
20260502192002 60 4 4.0 12.0 0.00 0.00 0.00 48 1012.2
20260502191003 60 3 4.0 11.0 0.00 0.00 0.00 49 1012.5
20260502190503 60 352 4.0 12.0 0.00 0.00 0.00 49 1012.5
20260502190004 60 352 4.0 12.0 0.00 0.00 0.00 50 1012.4
20260502185503 60 352 3.0 11.0 0.00 0.00 0.00 51 1012.6
20260502185002 60 357 2.0 7.0 0.00 0.00 0.00 52 1012.7
20260502184503 60 3 3.0 9.0 0.00 0.00 0.00 51 1012.7
20260502184003 59 352 4.0 9.0 0.00 0.00 0.00 53 1012.9
20260502183502 59 352 3.0 10.0 0.00 0.00 0.00 49 1013.0
20260502183003 58 350 3.0 11.0 0.00 0.00 0.00 51 1013.1
20260502182004 58 350 4.0 14.0 0.00 0.00 0.00 52 1013.3
20260502181503 58 1 4.0 14.0 0.00 0.00 0.00 53 1013.3
20260502181003 58 3 4.0 11.0 0.00 0.00 0.00 53 1013.4
20260502170503 58 359 3.0 11.0 0.00 0.00 0.00 54 1013.6
20260502164002 58 353 3.0 11.0 0.00 0.00 0.00 56 1013.6
20260502163503 57 354 3.0 11.0 0.00 0.00 0.00 56 1013.8
20260502163003 57 340 3.0 8.0 0.00 0.00 0.00 58 1013.8
20260502162503 57 322 2.0 8.0 0.00 0.00 0.00 58 1013.8
20260502162002 57 343 4.0 12.0 0.00 0.00 0.00 57 1013.9
20260502161503 57 354 4.0 12.0 0.00 0.00 0.00 56 1013.9
20260502161003 57 1 3.0 11.0 0.00 0.00 0.00 57 1014.0
20260502160503 57 358 3.0 11.0 0.00 0.00 0.00 56 1014.0
20260502152003 56 3 4.0 8.0 0.00 0.00 0.00 59 1014.2
20260502151502 56 8 4.0 10.0 0.00 0.00 0.00 58 1013.9
20260502151002 56 10 4.0 11.0 0.00 0.00 0.00 58 1013.9
20260502150503 56 8 4.0 11.0 0.00 0.00 0.00 57 1013.9
20260502130503 54 1 6.0 15.0 0.00 0.00 0.00 66 1014.0
20260502123503 52 358 5.0 13.0 0.00 0.00 0.00 72 1013.9
20260502123003 52 359 4.0 12.0 0.00 0.00 0.00 72 1014.0
20260502122003 51 2 5.0 11.0 0.00 0.00 0.00 76 1013.9
20260502121503 51 1 5.0 11.0 0.00 0.00 0.00 77 1014.0
20260502120502 50 1 3.0 11.0 0.00 0.00 0.00 84 1014.1
20260502115503 49 345 1.0 2.0 0.00 0.00 0.00 89 1014.1
20260502115003 48 347 1.0 4.0 0.00 0.00 0.00 89 1014.2
20260502114503 48 333 1.0 4.0 0.00 0.00 0.00 89 1014.2
20260502114003 48 310 1.0 2.0 0.00 0.00 0.00 90 1014.1
20260502113503 47 304 1.0 2.0 0.00 0.00 0.00 91 1014.0
20260502113003 47 313 0.0 2.0 0.00 0.00 0.00 91 1014.0
20260502112503 46 324 0.0 2.0 0.00 0.00 0.00 92 1013.9
20260502112002 46 329 0.0 2.0 0.00 0.00 0.00 92 1014.0
20260502111504 46 344 0.0 2.0 0.00 0.00 0.00 92 1013.9
20260502111002 46 337 0.0 2.0 0.00 0.00 0.00 92 1013.9
20260502110503 46 351 0.0 2.0 0.00 0.00 0.00 91 1013.9
20260502110003 45 2 0.0 2.0 0.00 0.00 0.00 91 1013.8
20260502105503 45 358 0.0 2.0 0.00 0.00 0.00 91 1013.8
20260502104503 45 342 0.0 2.0 0.00 0.00 0.00 90 1013.8
20260502103503 45 322 0.0 2.0 0.00 0.00 0.00 90 1013.7
20260502103003 45 320 0.0 2.0 0.00 0.00 0.00 90 1013.6
20260502102503 45 320 0.0 2.0 0.00 0.00 0.00 90 1013.5
20260502100503 45 2 0.0 2.0 0.00 0.00 0.00 89 1013.3
20260502091503 45 359 0.0 2.0 0.00 0.00 0.00 90 1012.9
20260502091004 45 355 0.0 2.0 0.00 0.00 0.00 90 1013.0
20260502090503 45 347 0.0 2.0 0.00 0.00 0.00 90 1013.0